Tracking 19795 objects as of 20-Jul-2019
HD Live streaming from Space Station
objects crossing your sky now

FENGYUN 1C DEB


FENGYUN 1C DEB is no longer on orbit


NORAD ID: 32341
Int'l Code: 1999-025CYJ
Perigee: N/A
Apogee: N/A
Inclination: N/A
Period: N/A
Semi major axis: N/A
RCS: N/A
Launch date: May 10, 1999
Source: People's Republic of China (PRC)
Launch site: Taiyaun Space Center, China (TSC)
Decay date: 2012-06-20

Note: This is SATELLITE DEBRIS
aabbcc
Your satellite tracking list
Your tracking list is empty




NASA's NSSDC Master Catalog

Two Line Element Set (TLE):
1 32341U 99025CYJ 12113.14074308  .00217319  00000-0  28188-2 0  9995
2 32341 100.1291 339.5590 0100863 130.6605 234.1219 15.52245508265295
Source of the keplerian elements: AFSPC